This is the latest recevied weather packets stored in our database for station/object WD7OO. If no packets are shown the sender has not sent any weather packets the latest 10 day(s).
| Time | Temp. | Humidity | Pressure | Rain* | Wind** | Luminosity | Snow |
|---|---|---|---|---|---|---|---|
| 1777492112 | 12.22° C | 77% | 1012.4 hPa | 0 mm | - | 453 W/m² | - |
| 1777491808 | 12.22° C | 77% | 1012.8 hPa | 0 mm | - | 809 W/m² | - |
| 1777491505 | 12.78° C | 78% | 1012.7 hPa | 0 mm | - | 222 W/m² | - |
| 1777491203 | 12.78° C | 77% | 1012.3 hPa | 0 mm | - | 255 W/m² | - |
| 1777490898 | 12.78° C | 77% | 1012.5 hPa | 0 mm | - | 805 W/m² | - |
| 1777490594 | 12.78° C | 79% | 1012.4 hPa | 0 mm | - | 733 W/m² | - |
| 1777490291 | 12.78° C | 78% | 1012.3 hPa | 0 mm | - | 761 W/m² | - |
| 1777489988 | 12.78° C | 83% | 1012.3 hPa | 0 mm | - | 772 W/m² | - |
| 1777489686 | 12.78° C | 83% | 1012.3 hPa | 0 mm | - | 794 W/m² | - |
| 1777489382 | 12.78° C | 83% | 1012.1 hPa | 0 mm | - | 772 W/m² | - |
| 1777489079 | 12.22° C | 84% | 1012.3 hPa | 0 mm | - | 523 W/m² | - |
| 1777488776 | 12.22° C | 84% | 1012.2 hPa | 0 mm | - | 468 W/m² | - |
| 1777488474 | 12.78° C | 85% | 1012.2 hPa | 0 mm | - | 839 W/m² | - |
| 1777488172 | 12.22° C | 87% | 1012.1 hPa | 0 mm | - | 851 W/m² | - |
| 1777487869 | 12.22° C | 88% | 1012.1 hPa | 0 mm | - | 382 W/m² | - |
| 1777487567 | 12.22° C | 88% | 1012 hPa | 0 mm | - | 555 W/m² | - |
| 1777487264 | 11.67° C | 87% | 1011.9 hPa | 1.27 mm | - | 423 W/m² | - |
| 1777486961 | 11.67° C | 90% | 1012 hPa | 1.27 mm | - | 374 W/m² | - |
| 1777486657 | 12.22° C | 89% | 1011.9 hPa | 0 mm | - | 353 W/m² | - |
| 1777486355 | 12.22° C | 90% | 1011.9 hPa | 0 mm | - | 327 W/m² | - |
| 1777486053 | 12.22° C | 89% | 1011.7 hPa | 0 mm | - | 276 W/m² | - |
| 1777485748 | 12.22° C | 89% | 1011.9 hPa | 0 mm | - | 299 W/m² | - |
| 1777485444 | 12.22° C | 91% | 1011.9 hPa | 0 mm | - | 404 W/m² | - |
| 1777485140 | 12.78° C | 94% | 1011.8 hPa | 0 mm | - | 467 W/m² | - |
| 1777484837 | 12.22° C | 95% | 1011.7 hPa | 0 mm | - | 318 W/m² | - |
* Rain latest hour (hover to see other rain measurements)
** Current wind speed in m/s (hover to see current wind gust speed)